sat.trackr.live / text

‹ back to catalog

STARLINK-4424

NORAD 53681 · 2022-105AK

PAYLOAD ACTIVE UNKNOWN

§ Identity

Operator
Country
US
Launch date
2022-08-31
Launch site
AFWTR
Launch vehicle
Mass (kg)
RCS (m²)

Purposes: comms

External: N2YO · Heavens-Above · Gunter

§ Orbital elements

Epoch: 2026-08-20T02:31:14.570400Z

Period
87.50 min
Inclination
97.5661°
Eccentricity
0.0009482
Mean motion
16.45745510 rev/d
Perigee alt
144.4 km
Apogee alt
156.8 km
Semi-major
6,528.7 km
B*
2.0764e-4
RAAN
123.2889°
Arg perigee
274.0967°
Mean anomaly
85.9251°
Rev number
21,859

§ Raw data

STARLINK-44241 53681U 22105AK  26232.10502975  .08906939  26773-5  20764-3 0  99932 53681  97.5661 123.2889 0009482 274.0967  85.9251 16.45745510218593

JSON: /api/v1/satellites/53681 · /tle

For live sub-satellite position, see the globe view (requires WebGL).

§ Visibility from observer

Set your observer location to see the next 7 days of passes ≥ 10°. The values pass through the URL so the page stays shareable.

No JS? Fill the form by hand. The geolocation button needs JavaScript.